When you browse on this site, cookies collect data to enhance your experience and personalize the content and advertising you see.
Visit our Privacy Policy to learn more. By continuing to use the site, you agree to this use of cookies and data.
  • En España
  • Lista de países
  • Para 7 días
  • Temperatura del agua
  • El tiempo en el mapa
  • Informadores
  • user-avatar
    Iniciar sesión

    Tiempo cada hora Loja

    Hoy, 24 Febrero, Lunes

    Tiempo Temperatura Precipitaciones Viento Presión Humedad
    00:00 +11°C° 0 mm 1 mps 719 mmHg 45%
    01:00 +11°C° 0 mm 1 mps 718 mmHg 44%
    02:00 +11°C° 0 mm 1 mps 718 mmHg 43%
    03:00 +10°C° 0 mm 1 mps 717 mmHg 42%
    04:00 +10°C° 0 mm 1 mps 717 mmHg 41%
    05:00 +10°C° 0 mm 1 mps 717 mmHg 41%
    06:00 +10°C° 0 mm 1 mps 717 mmHg 40%
    07:00 +12°C° 0 mm 1 mps 717 mmHg 39%
    08:00 +13°C° 0 mm 1 mps 718 mmHg 37%
    09:00 +15°C° 0 mm 1 mps 718 mmHg 36%
    10:00 +18°C° 0 mm 1 mps 718 mmHg 33%
    11:00 +19°C° 0 mm 1 mps 718 mmHg 31%
    12:00 +21°C° 0 mm 1 mps 718 mmHg 28%
    13:00 +20°C° 0 mm 2 mps 717 mmHg 28%
    14:00 +21°C° 0 mm 2 mps 717 mmHg 29%
    15:00 +21°C° 0 mm 2 mps 716 mmHg 29%
    16:00 +19°C° 0 mm 2 mps 716 mmHg 36%
    17:00 +17°C° 0 mm 2 mps 715 mmHg 42%
    18:00 +15°C° 0 mm 2 mps 715 mmHg 49%
    19:00 +14°C° 0 mm 1 mps 715 mmHg 50%
    20:00 +13°C° 0 mm 1 mps 715 mmHg 51%
    21:00 +12°C° 0 mm 1 mps 714 mmHg 52%
    22:00 +12°C° 0 mm 1 mps 714 mmHg 53%
    23:00 +12°C° 0 mm 1 mps 714 mmHg 54%

    Mañana, 25 Febrero, Martes

    Tiempo Temperatura Precipitaciones Viento Presión Humedad
    00:00 +11°C° 0 mm 1 mps 714 mmHg 55%
    01:00 +11°C° 0 mm 1 mps 714 mmHg 58%
    02:00 +10°C° 0 mm 1 mps 713 mmHg 61%
    03:00 +10°C° 0 mm 1 mps 713 mmHg 64%
    04:00 +10°C° 0 mm 1 mps 713 mmHg 66%
    05:00 +9°C° 0 mm 1 mps 713 mmHg 68%
    06:00 +9°C° 0 mm 1 mps 713 mmHg 71%
    07:00 +11°C° 0 mm 1 mps 713 mmHg 66%
    08:00 +12°C° 0 mm 1 mps 713 mmHg 62%
    09:00 +14°C° 0 mm 2 mps 714 mmHg 57%
    10:00 +15°C° 0 mm 2 mps 714 mmHg 53%
    11:00 +16°C° 0 mm 3 mps 714 mmHg 49%
    12:00 +18°C° 0 mm 4 mps 714 mmHg 44%
    13:00 +18°C° 0 mm 4 mps 714 mmHg 42%
    14:00 +18°C° 0 mm 4 mps 713 mmHg 39%
    15:00 +19°C° 0 mm 4 mps 712 mmHg 37%
    16:00 +17°C° 0 mm 4 mps 712 mmHg 44%
    17:00 +14°C° 0 mm 3 mps 712 mmHg 51%
    18:00 +12°C° 0 mm 3 mps 712 mmHg 58%
    19:00 +12°C° 0 mm 3 mps 712 mmHg 59%
    20:00 +12°C° 0 mm 2 mps 712 mmHg 61%
    21:00 +10°C° 0 mm 2 mps 713 mmHg 63%
    22:00 +10°C° 0 mm 2 mps 713 mmHg 66%
    23:00 +9°C° 0 mm 2 mps 713 mmHg 69%

    Pasado mañana, 26 Febrero, Miércoles

    Tiempo Temperatura Precipitaciones Viento Presión Humedad
    00:00 +9°C° 0 mm 2 mps 713 mmHg 72%
    01:00 +9°C° 0 mm 2 mps 712 mmHg 76%
    02:00 +9°C° 0 mm 1 mps 712 mmHg 80%
    03:00 +9°C° 0 mm 1 mps 712 mmHg 84%
    04:00 +9°C° 0 mm 1 mps 712 mmHg 86%
    05:00 +8°C° 0 mm 2 mps 711 mmHg 88%
    06:00 +7°C° 0 mm 2 mps 711 mmHg 90%
    07:00 +8°C° 0 mm 2 mps 712 mmHg 87%
    08:00 +10°C° 0 mm 2 mps 712 mmHg 83%
    09:00 +12°C° 0 mm 2 mps 713 mmHg 80%
    10:00 +13°C° 0 mm 2 mps 713 mmHg 69%
    11:00 +15°C° 0 mm 2 mps 713 mmHg 58%
    12:00 +16°C° 0 mm 3 mps 714 mmHg 47%
    13:00 +16°C° 0 mm 3 mps 713 mmHg 45%
    14:00 +17°C° 0 mm 3 mps 713 mmHg 43%
    15:00 +17°C° 0 mm 3 mps 712 mmHg 41%
    16:00 +16°C° 0 mm 3 mps 712 mmHg 47%
    17:00 +14°C° 0 mm 2 mps 712 mmHg 54%
    18:00 +12°C° 0 mm 2 mps 712 mmHg 61%
    19:00 +12°C° 0 mm 2 mps 712 mmHg 63%
    20:00 +11°C° 0 mm 1 mps 712 mmHg 65%
    21:00 +10°C° 0 mm 1 mps 713 mmHg 67%
    22:00 +10°C° 0 mm 1 mps 713 mmHg 68%
    23:00 +9°C° 0 mm 1 mps 713 mmHg 69%

    27 Febrero, Jueves

    Tiempo Temperatura Precipitaciones Viento Presión Humedad
    00:00 +9°C° 0 mm 1 mps 713 mmHg 70%
    01:00 +9°C° 0 mm 1 mps 712 mmHg 70%
    02:00 +9°C° 0 mm 1 mps 712 mmHg 70%
    03:00 +8°C° 0 mm 1 mps 712 mmHg 70%
    04:00 +8°C° 0 mm 1 mps 712 mmHg 68%
    05:00 +8°C° 0 mm 1 mps 712 mmHg 66%
    06:00 +8°C° 0 mm 1 mps 712 mmHg 64%
    07:00 +9°C° 0 mm 1 mps 713 mmHg 58%
    08:00 +11°C° 0 mm 1 mps 713 mmHg 53%
    09:00 +13°C° 0 mm 1 mps 714 mmHg 47%
    10:00 +15°C° 0 mm 1 mps 714 mmHg 43%
    11:00 +16°C° 0 mm 1 mps 714 mmHg 38%
    12:00 +19°C° 0 mm 1 mps 714 mmHg 34%
    13:00 +19°C° 0 mm 1 mps 714 mmHg 34%
    14:00 +20°C° 0 mm 1 mps 714 mmHg 34%
    15:00 +19°C° 0 mm 2 mps 713 mmHg 34%
    16:00 +19°C° 0 mm 1 mps 713 mmHg 40%
    17:00 +16°C° 0 mm 1 mps 713 mmHg 47%
    18:00 +14°C° 0 mm 1 mps 712 mmHg 53%
    19:00 +13°C° 0 mm 1 mps 713 mmHg 55%
    20:00 +11°C° 0 mm 0 mps 713 mmHg 56%
    21:00 +10°C° 0 mm 0 mps 713 mmHg 58%
    22:00 +10°C° 0 mm 0 mps 713 mmHg 57%
    23:00 +10°C° 0 mm 0 mps 713 mmHg 57%

    28 Febrero, Viernes

    Tiempo Temperatura Precipitaciones Viento Presión Humedad
    00:00 +10°C° 0 mm 1 mps 712 mmHg 56%
    01:00 +10°C° 0 mm 1 mps 712 mmHg 57%
    02:00 +10°C° 0 mm 1 mps 712 mmHg 58%
    03:00 +9°C° 0 mm 1 mps 711 mmHg 59%
    04:00 +9°C° 0 mm 1 mps 711 mmHg 59%
    05:00 +9°C° 0 mm 1 mps 711 mmHg 59%
    06:00 +9°C° 0 mm 1 mps 711 mmHg 59%
    07:00 +11°C° 0 mm 1 mps 711 mmHg 55%
    08:00 +13°C° 0 mm 1 mps 712 mmHg 52%
    09:00 +14°C° 0 mm 1 mps 712 mmHg 48%
    10:00 +16°C° 0 mm 1 mps 712 mmHg 44%
    11:00 +18°C° 0 mm 1 mps 712 mmHg 41%
    12:00 +19°C° 0 mm 2 mps 712 mmHg 37%
    13:00 +19°C° 0 mm 2 mps 712 mmHg 38%
    14:00 +20°C° 0 mm 2 mps 711 mmHg 39%
    15:00 +20°C° 0 mm 3 mps 711 mmHg 40%
    16:00 +18°C° 0 mm 2 mps 711 mmHg 47%
    17:00 +16°C° 0 mm 2 mps 711 mmHg 54%
    18:00 +15°C° 0 mm 2 mps 710 mmHg 62%
    19:00 +14°C° 0 mm 2 mps 711 mmHg 64%
    20:00 +13°C° 0 mm 2 mps 711 mmHg 66%
    21:00 +12°C° 0 mm 1 mps 711 mmHg 69%
    22:00 +12°C° 0 mm 1 mps 711 mmHg 70%
    23:00 +11°C° 0 mm 1 mps 711 mmHg 71%

    29 Febrero, Sábado

    Tiempo Temperatura Precipitaciones Viento Presión Humedad
    00:00 +11°C° 0 mm 1 mps 711 mmHg 71%
    01:00 +10°C° 0 mm 1 mps 711 mmHg 74%
    02:00 +10°C° 0 mm 1 mps 711 mmHg 77%
    03:00 +9°C° 0 mm 1 mps 711 mmHg 80%
    04:00 +9°C° 0 mm 1 mps 711 mmHg 82%
    05:00 +9°C° 0 mm 1 mps 711 mmHg 83%
    06:00 +8°C° 0 mm 1 mps 711 mmHg 84%
    07:00 +9°C° 0 mm 1 mps 711 mmHg 79%
    08:00 +10°C° 0 mm 2 mps 712 mmHg 75%
    09:00 +12°C° 0 mm 2 mps 712 mmHg 70%
    10:00 +13°C° 0 mm 2 mps 712 mmHg 62%
    11:00 +14°C° 0 mm 3 mps 712 mmHg 54%
    12:00 +17°C° 0 mm 3 mps 713 mmHg 46%
    13:00 +17°C° 0 mm 3 mps 712 mmHg 47%
    14:00 +18°C° 0 mm 3 mps 711 mmHg 48%
    15:00 +18°C° 0 mm 4 mps 711 mmHg 49%
    16:00 +17°C° 0 mm 3 mps 711 mmHg 57%
    17:00 +14°C° 0 mm 3 mps 711 mmHg 64%
    18:00 +13°C° 0 mm 2 mps 710 mmHg 72%
    19:00 +13°C° 0 mm 2 mps 711 mmHg 75%
    20:00 +12°C° 0 mm 2 mps 711 mmHg 78%
    21:00 +12°C° 0 mm 2 mps 711 mmHg 82%
    22:00 +10°C° 0 mm 2 mps 711 mmHg 85%
    23:00 +10°C° 0 mm 2 mps 711 mmHg 88%
    Mostrar más